Location: Ailly
(50.0793°N, 1.9944°E)
Time: 23:52:17
(UTC+00:00)

COSMO-SKYMED 1 - Pass Details

Date: 15 January 2026
Orbit: 577 x 579 km, 97.9° (Epoch: 16 February)

Event Time Altitude Azimuth Distance (km) Brightness Sun altitude
Rises 05:43:13 0° 181° (S) 2,789 6.0 -18.9°
Reaches altitude 10° 05:45:27 10° 188° (S) 1,894 5.1 -18.5°
Maximum altitude 05:49:22 44° 261° (W) 815 2.7 -17.9°
Enters shadow 05:50:17 37° 297° (WNW) 907 2.9 -17.8°
